TimeCDT,TemperatureF,Dew PointF,Humidity,Sea Level PressureIn,VisibilityMPH,Wind Direction,Wind SpeedMPH,Gust SpeedMPH,PrecipitationIn,Events,Conditions,WindDirDegrees,DateUTC
12:15 AM,54.0,44.2,70,30.01,10.0,NE,3.5,-,N/A,,Clear,50,2013-05-08 05:15:00
12:35 AM,52.3,43.7,72,30.01,10.0,ENE,3.5,-,N/A,,Clear,70,2013-05-08 05:35:00
12:55 AM,52.7,44.2,73,30.01,10.0,Calm,Calm,-,N/A,,Clear,0,2013-05-08 05:55:00
1:15 AM,51.3,45.0,79,30.01,10.0,Calm,Calm,-,N/A,,Clear,0,2013-05-08 06:15:00
1:35 AM,52.2,44.4,75,30.00,10.0,Calm,Calm,-,N/A,,Clear,0,2013-05-08 06:35:00
1:55 AM,51.3,46.6,84,30.00,10.0,Calm,Calm,-,N/A,,Clear,0,2013-05-08 06:55:00
2:15 AM,50.9,45.1,81,30.00,10.0,Calm,Calm,-,N/A,,Clear,0,2013-05-08 07:15:00
2:35 AM,51.8,44.4,76,29.99,10.0,Calm,Calm,-,N/A,,Clear,0,2013-05-08 07:35:00
2:55 AM,51.3,44.2,77,29.99,10.0,Calm,Calm,-,N/A,,Clear,0,2013-05-08 07:55:00
3:15 AM,51.1,44.1,77,30.00,10.0,Calm,Calm,-,N/A,,Clear,0,2013-05-08 08:15:00
3:35 AM,50.9,44.1,77,30.00,10.0,Calm,Calm,-,N/A,,Clear,0,2013-05-08 08:35:00
3:55 AM,51.3,44.1,76,30.00,10.0,Calm,Calm,-,N/A,,Clear,0,2013-05-08 08:55:00
4:15 AM,49.5,44.2,82,30.00,10.0,Calm,Calm,-,N/A,,Clear,0,2013-05-08 09:15:00
4:35 AM,49.5,45.1,85,30.00,10.0,Calm,Calm,-,N/A,,Clear,0,2013-05-08 09:35:00
4:55 AM,49.6,45.0,84,30.00,10.0,Calm,Calm,-,N/A,,Clear,0,2013-05-08 09:55:00
5:15 AM,48.2,46.4,93,30.01,10.0,Calm,Calm,-,N/A,,Clear,0,2013-05-08 10:15:00
5:35 AM,48.4,46.0,92,30.01,10.0,Calm,Calm,-,N/A,,Clear,0,2013-05-08 10:35:00
5:55 AM,48.2,45.1,89,30.02,10.0,Calm,Calm,-,N/A,,Clear,0,2013-05-08 10:55:00
6:15 AM,48.9,45.1,87,30.03,10.0,Calm,Calm,-,N/A,,Clear,0,2013-05-08 11:15:00
6:35 AM,50.2,46.2,86,30.03,10.0,Calm,Calm,-,N/A,,Clear,0,2013-05-08 11:35:00
6:55 AM,52.0,48.4,88,30.04,10.0,Calm,Calm,-,N/A,,Clear,0,2013-05-08 11:55:00
7:15 AM,55.0,49.5,81,30.04,10.0,Calm,Calm,-,N/A,,Clear,0,2013-05-08 12:15:00
7:35 AM,57.2,47.3,69,30.04,10.0,Calm,Calm,-,N/A,,Clear,0,2013-05-08 12:35:00
7:55 AM,58.8,48.4,68,30.04,10.0,Calm,Calm,-,N/A,,Clear,0,2013-05-08 12:55:00
8:15 AM,61.0,48.4,63,30.05,10.0,Calm,Calm,-,N/A,,Clear,0,2013-05-08 13:15:00
8:35 AM,63.1,50.0,62,30.05,10.0,Calm,Calm,-,N/A,,Clear,0,2013-05-08 13:35:00
8:55 AM,65.3,51.4,61,30.05,10.0,Calm,Calm,-,N/A,,Clear,0,2013-05-08 13:55:00
9:15 AM,68.4,52.7,57,30.05,10.0,Calm,Calm,-,N/A,,Clear,0,2013-05-08 14:15:00
9:35 AM,69.8,52.9,55,30.04,10.0,Calm,Calm,-,N/A,,Clear,0,2013-05-08 14:35:00
9:55 AM,72.7,53.8,51,30.04,10.0,Calm,Calm,-,N/A,,Clear,0,2013-05-08 14:55:00
10:15 AM,73.2,51.4,46,30.04,10.0,Calm,Calm,-,N/A,,Clear,0,2013-05-08 15:15:00
10:35 AM,73.4,50.9,45,30.04,10.0,Calm,Calm,-,N/A,,Clear,0,2013-05-08 15:35:00
10:55 AM,74.7,52.2,45,30.04,10.0,NE,5.8,-,N/A,,Clear,40,2013-05-08 15:55:00
11:15 AM,74.7,50.7,43,30.04,10.0,ESE,4.6,-,N/A,,Clear,120,2013-05-08 16:15:00
11:35 AM,75.4,50.4,41,30.03,10.0,Calm,Calm,-,N/A,,Clear,0,2013-05-08 16:35:00
11:55 AM,75.2,48.9,39,30.03,10.0,Calm,Calm,-,N/A,,Clear,0,2013-05-08 16:55:00
12:15 PM,76.1,50.2,40,30.02,10.0,ESE,4.6,-,N/A,,Clear,110,2013-05-08 17:15:00
12:35 PM,76.3,49.8,39,30.02,10.0,NE,5.8,-,N/A,,Clear,50,2013-05-08 17:35:00
12:55 PM,77.4,50.9,39,30.01,10.0,NNW,4.6,-,N/A,,Clear,340,2013-05-08 17:55:00
1:15 PM,78.4,50.0,37,30.01,10.0,West,5.8,-,N/A,,Clear,270,2013-05-08 18:15:00
1:35 PM,78.3,49.6,37,30.00,10.0,Calm,Calm,-,N/A,,Scattered Clouds,0,2013-05-08 18:35:00
1:55 PM,78.8,48.2,34,30.00,10.0,Calm,Calm,-,N/A,,Scattered Clouds,0,2013-05-08 18:55:00
2:15 PM,79.2,47.8,33,29.99,10.0,Calm,Calm,-,N/A,,Clear,0,2013-05-08 19:15:00
2:35 PM,78.8,46.9,32,29.99,10.0,Calm,Calm,-,N/A,,Mostly Cloudy,0,2013-05-08 19:35:00
2:55 PM,76.8,48.7,37,29.98,10.0,NE,5.8,-,N/A,,Mostly Cloudy,40,2013-05-08 19:55:00
3:15 PM,78.8,49.1,35,29.97,10.0,ENE,4.6,-,N/A,,Scattered Clouds,60,2013-05-08 20:15:00
3:35 PM,79.0,45.3,30,29.97,10.0,NNW,6.9,-,N/A,,Mostly Cloudy,340,2013-05-08 20:35:00
3:55 PM,77.5,45.5,32,29.96,10.0,NNW,3.5,-,N/A,,Scattered Clouds,330,2013-05-08 20:55:00
4:15 PM,78.3,45.1,31,29.96,7.0,NNW,3.5,-,N/A,,Scattered Clouds,330,2013-05-08 21:15:00
4:35 PM,79.3,45.7,30,29.96,10.0,NNE,5.8,-,N/A,,Scattered Clouds,20,2013-05-08 21:35:00
4:55 PM,80.2,41.4,25,29.96,10.0,WNW,6.9,-,N/A,,Scattered Clouds,290,2013-05-08 21:55:00
5:15 PM,79.9,40.3,24,29.96,10.0,WNW,5.8,-,N/A,,Clear,290,2013-05-08 22:15:00
5:35 PM,78.6,42.1,27,29.96,10.0,NW,4.6,-,N/A,,Clear,320,2013-05-08 22:35:00
5:55 PM,75.9,51.4,42,29.96,10.0,East,4.6,-,N/A,,Scattered Clouds,80,2013-05-08 22:55:00
6:15 PM,75.2,50.7,42,29.96,10.0,NE,5.8,-,N/A,,Mostly Cloudy,50,2013-05-08 23:15:00
6:35 PM,72.5,52.5,49,29.96,10.0,NE,5.8,-,N/A,,Scattered Clouds,50,2013-05-08 23:35:00
6:55 PM,72.3,52.5,50,29.96,10.0,NE,6.9,-,N/A,,Clear,50,2013-05-08 23:55:00
7:15 PM,70.9,51.8,51,29.96,10.0,NE,8.1,-,N/A,,Clear,50,2013-05-09 00:15:00
7:35 PM,70.3,50.5,49,29.97,7.0,Calm,Calm,-,N/A,,Clear,0,2013-05-09 00:35:00
7:55 PM,69.6,50.2,50,29.97,5.0,NNE,3.5,-,N/A,,Haze,30,2013-05-09 00:55:00
8:15 PM,67.6,50.4,54,29.97,10.0,ENE,3.5,-,N/A,,Scattered Clouds,60,2013-05-09 01:15:00
8:35 PM,66.7,50.7,56,29.98,10.0,NNE,3.5,-,N/A,,Mostly Cloudy,30,2013-05-09 01:35:00
8:55 PM,66.9,50.7,56,29.99,10.0,Calm,Calm,-,N/A,,Mostly Cloudy,0,2013-05-09 01:55:00
9:15 PM,67.3,49.8,53,30.00,10.0,ENE,3.5,-,N/A,,Mostly Cloudy,70,2013-05-09 02:15:00
9:35 PM,66.6,49.5,54,30.00,10.0,ENE,4.6,-,N/A,,Mostly Cloudy,70,2013-05-09 02:35:00
9:55 PM,64.8,49.5,58,30.00,10.0,ENE,3.5,-,N/A,,Clear,70,2013-05-09 02:55:00
10:15 PM,63.3,49.3,60,30.00,10.0,NE,3.5,-,N/A,,Clear,50,2013-05-09 03:15:00
10:35 PM,63.9,48.4,57,29.99,10.0,ENE,4.6,-,N/A,,Clear,70,2013-05-09 03:35:00
11:15 PM,62.4,48.2,60,29.99,10.0,Calm,Calm,-,N/A,,Clear,0,2013-05-09 04:15:00
11:55 PM,58.3,50.4,75,29.99,10.0,Calm,Calm,-,N/A,,Scattered Clouds,0,2013-05-09 04:55:00